IBE1293 LFPG-EDDF

Flight info

Callsign IBE1293
Flight time 1h 7m
Altitude 23000
Route RANUX DCT VALEK DCT LIPNI UN858 LIMGO Z111 RAMOB IMCOM1A
Aircraft A320/M-SDE3FGHIRWY/LB1

Departure

Time 2026-05-05 15:22
Airport Charles de Gaulle International Airport (LFPG)

Arrival

Time 2026-05-05 16:29
Airport Frankfurt Main Airport (EDDF)
Time Latitude Longitude Altitude Speed Heading
2026-05-05 14:58 49.01651 2.53907 354 ft 0 kts 194°
2026-05-05 15:08 49.01670 2.53915 364 ft 4 kts 201°
2026-05-05 15:08 49.01694 2.53932 360 ft 4 kts 210°
2026-05-05 15:09 49.01717 2.53953 362 ft 4 kts 212°
2026-05-05 15:09 49.01740 2.53975 363 ft 4 kts 217°
2026-05-05 15:09 49.01760 2.54001 359 ft 4 kts 226°
2026-05-05 15:09 49.01770 2.54017 363 ft 0 kts 229°
2026-05-05 15:13 49.01759 2.54001 361 ft 5 kts 220°
2026-05-05 15:14 49.01741 2.53967 357 ft 3 kts 249°
2026-05-05 15:14 49.01755 2.53886 357 ft 7 kts 291°
2026-05-05 15:14 49.01743 2.53830 361 ft 11 kts 233°
2026-05-05 15:14 49.01670 2.53729 356 ft 12 kts 219°
2026-05-05 15:15 49.01618 2.53668 354 ft 7 kts 222°
2026-05-05 15:15 49.01608 2.53594 359 ft 6 kts 294°
2026-05-05 15:15 49.01652 2.53527 358 ft 11 kts 308°
2026-05-05 15:15 49.01676 2.53442 363 ft 6 kts 284°
2026-05-05 15:16 49.01675 2.53331 360 ft 13 kts 266°
2026-05-05 15:16 49.01670 2.53216 354 ft 12 kts 266°
2026-05-05 15:16 49.01662 2.53058 354 ft 18 kts 265°
2026-05-05 15:16 49.01652 2.52859 354 ft 18 kts 264°
2026-05-05 15:17 49.01657 2.52682 355 ft 16 kts 301°
2026-05-05 15:17 49.01721 2.52565 361 ft 13 kts 288°
2026-05-05 15:17 49.01719 2.52438 359 ft 10 kts 271°
2026-05-05 15:17 49.01750 2.52375 362 ft 7 kts 338°
2026-05-05 15:18 49.01808 2.52366 354 ft 9 kts 356°
2026-05-05 15:18 49.01861 2.52357 354 ft 7 kts 343°
2026-05-05 15:18 49.01888 2.52226 361 ft 20 kts 265°
2026-05-05 15:18 49.01877 2.52022 356 ft 18 kts 265°
2026-05-05 15:19 49.01866 2.51840 354 ft 16 kts 265°
2026-05-05 15:19 49.01859 2.51681 357 ft 14 kts 266°
2026-05-05 15:19 49.01851 2.51555 354 ft 9 kts 265°
2026-05-05 15:19 49.01846 2.51465 354 ft 11 kts 265°
2026-05-05 15:20 49.01867 2.51294 357 ft 18 kts 309°
2026-05-05 15:20 49.01910 2.51254 357 ft 4 kts 342°
2026-05-05 15:20 49.01948 2.51252 355 ft 7 kts
2026-05-05 15:20 49.01985 2.51274 357 ft 7 kts 28°
2026-05-05 15:21 49.02018 2.51318 360 ft 6 kts 49°
2026-05-05 15:21 49.02061 2.51419 355 ft 23 kts 69°
2026-05-05 15:21 49.02100 2.51979 353 ft 87 kts 85°
2026-05-05 15:21 49.02165 2.53181 361 ft 138 kts 85°
2026-05-05 15:22 49.02254 2.54842 461 ft 171 kts 80°
2026-05-05 15:22 49.02359 2.56706 1004 ft 180 kts 82°
2026-05-05 15:22 49.02462 2.58598 1751 ft 180 kts 81°
2026-05-05 15:22 49.02569 2.60574 2098 ft 194 kts 81°
2026-05-05 15:23 49.02686 2.62730 2377 ft 216 kts 82°
2026-05-05 15:23 49.02815 2.65141 2786 ft 241 kts 84°
2026-05-05 15:23 49.02951 2.67762 3452 ft 253 kts 84°
2026-05-05 15:23 49.03090 2.70468 4354 ft 258 kts 84°
2026-05-05 15:24 49.03227 2.73210 5322 ft 261 kts 85°
2026-05-05 15:24 49.03359 2.75978 6259 ft 263 kts 85°
2026-05-05 15:24 49.03490 2.78746 7063 ft 267 kts 85°
2026-05-05 15:24 49.03625 2.81583 7865 ft 271 kts 85°
2026-05-05 15:25 49.03759 2.84458 8707 ft 274 kts 85°
2026-05-05 15:25 49.03895 2.87379 9531 ft 278 kts 85°
2026-05-05 15:25 49.04036 2.90364 10144 ft 289 kts 85°
2026-05-05 15:25 49.04190 2.93538 10395 ft 312 kts 84°
2026-05-05 15:26 49.04403 2.96886 10946 ft 321 kts 83°
2026-05-05 15:26 49.04657 3.00300 11673 ft 325 kts 83°
2026-05-05 15:26 49.04926 3.03726 12500 ft 327 kts 83°
2026-05-05 15:26 49.05196 3.07193 13251 ft 331 kts 83°
2026-05-05 15:27 49.05464 3.10712 13878 ft 339 kts 85°
2026-05-05 15:27 49.05732 3.14334 14420 ft 347 kts 85°
2026-05-05 15:27 49.05997 3.17968 15009 ft 351 kts 85°
2026-05-05 15:27 49.06265 3.21685 15616 ft 355 kts 85°
2026-05-05 15:28 49.06534 3.25441 16230 ft 358 kts 85°
2026-05-05 15:28 49.06806 3.29240 16839 ft 362 kts 85°
2026-05-05 15:28 49.07080 3.33082 17449 ft 365 kts 85°
2026-05-05 15:28 49.07352 3.36948 18054 ft 369 kts 85°
2026-05-05 15:29 49.07628 3.40867 18622 ft 373 kts 85°
2026-05-05 15:29 49.07903 3.44805 19195 ft 375 kts 86°
2026-05-05 15:29 49.08177 3.48781 19747 ft 377 kts 86°
2026-05-05 15:29 49.08451 3.52774 20296 ft 380 kts 86°
2026-05-05 15:30 49.08728 3.56794 20788 ft 383 kts 86°
2026-05-05 15:30 49.09008 3.60861 21311 ft 386 kts 86°
2026-05-05 15:30 49.09288 3.64948 21839 ft 388 kts 86°
2026-05-05 15:30 49.09563 3.68996 22346 ft 391 kts 86°
2026-05-05 15:31 49.09842 3.73135 22727 ft 393 kts 86°
2026-05-05 15:31 49.10115 3.77250 22801 ft 383 kts 86°
2026-05-05 15:31 49.10380 3.81234 22805 ft 374 kts 86°
2026-05-05 15:31 49.10642 3.85171 22800 ft 372 kts 86°
2026-05-05 15:32 49.10901 3.89102 22811 ft 371 kts 86°
2026-05-05 15:32 49.11157 3.93023 22809 ft 371 kts 86°
2026-05-05 15:32 49.11413 3.96940 22810 ft 371 kts 86°
2026-05-05 15:32 49.11666 4.00863 22804 ft 371 kts 86°
2026-05-05 15:33 49.11916 4.04780 22812 ft 371 kts 86°
2026-05-05 15:33 49.12160 4.08649 22813 ft 371 kts 86°
2026-05-05 15:33 49.12406 4.12573 22810 ft 371 kts 86°
2026-05-05 15:33 49.12652 4.16487 22812 ft 371 kts 86°
2026-05-05 15:34 49.12900 4.20407 22811 ft 371 kts 86°
2026-05-05 15:34 49.13147 4.24332 22817 ft 371 kts 86°
2026-05-05 15:34 49.13391 4.28259 22816 ft 371 kts 86°
2026-05-05 15:34 49.13632 4.32177 22817 ft 371 kts 86°
2026-05-05 15:35 49.14025 4.36080 22822 ft 373 kts 78°
2026-05-05 15:35 49.14881 4.39839 22820 ft 376 kts 69°
2026-05-05 15:35 49.15897 4.43514 22805 ft 376 kts 69°
2026-05-05 15:35 49.16903 4.47196 22806 ft 375 kts 69°
2026-05-05 15:36 49.17901 4.50880 22809 ft 375 kts 69°
2026-05-05 15:36 49.18883 4.54520 22809 ft 375 kts 69°
2026-05-05 15:36 49.19874 4.58205 22810 ft 375 kts 69°
2026-05-05 15:36 49.20867 4.61899 22808 ft 375 kts 69°
2026-05-05 15:37 49.21861 4.65593 22810 ft 376 kts 69°
2026-05-05 15:37 49.22858 4.69286 22808 ft 376 kts 69°
2026-05-05 15:37 49.23857 4.72988 22807 ft 376 kts 69°
2026-05-05 15:37 49.24854 4.76693 22807 ft 376 kts 69°
2026-05-05 15:38 49.25848 4.80397 22815 ft 377 kts 69°
2026-05-05 15:38 49.26843 4.84111 22822 ft 378 kts 69°
2026-05-05 15:38 49.27838 4.87837 22830 ft 378 kts 69°
2026-05-05 15:38 49.28829 4.91569 22826 ft 379 kts 70°
2026-05-05 15:39 49.29805 4.95258 22812 ft 378 kts 70°
2026-05-05 15:39 49.30792 4.98988 22806 ft 377 kts 70°
2026-05-05 15:39 49.31778 5.02716 22802 ft 377 kts 70°
2026-05-05 15:39 49.32763 5.06436 22803 ft 377 kts 70°
2026-05-05 15:40 49.33751 5.10156 22804 ft 377 kts 70°
2026-05-05 15:40 49.34741 5.13883 22805 ft 377 kts 70°
2026-05-05 15:40 49.35730 5.17614 22806 ft 378 kts 70°
2026-05-05 15:40 49.36715 5.21346 22807 ft 378 kts 70°
2026-05-05 15:41 49.37697 5.25083 22811 ft 378 kts 70°
2026-05-05 15:41 49.38677 5.28832 22812 ft 378 kts 70°
2026-05-05 15:41 49.39637 5.32522 22813 ft 378 kts 71°
2026-05-05 15:41 49.40610 5.36269 22801 ft 378 kts 71°
2026-05-05 15:42 49.41583 5.40023 22799 ft 379 kts 71°
2026-05-05 15:42 49.42561 5.43787 22802 ft 380 kts 71°
2026-05-05 15:42 49.43545 5.47564 22803 ft 380 kts 71°
2026-05-05 15:42 49.44529 5.51338 22803 ft 380 kts 71°
2026-05-05 15:43 49.45515 5.55107 22807 ft 380 kts 71°
2026-05-05 15:43 49.46500 5.58881 22807 ft 380 kts 71°
2026-05-05 15:43 49.47477 5.62658 22809 ft 380 kts 71°
2026-05-05 15:43 49.48450 5.66442 22813 ft 380 kts 71°
2026-05-05 15:44 49.49423 5.70231 22815 ft 380 kts 71°
2026-05-05 15:44 49.50381 5.73968 22819 ft 380 kts 71°
2026-05-05 15:44 49.51350 5.77750 22822 ft 380 kts 71°
2026-05-05 15:44 49.52310 5.81554 22823 ft 380 kts 72°
2026-05-05 15:45 49.53236 5.85360 22811 ft 380 kts 73°
2026-05-05 15:45 49.54158 5.89173 22818 ft 380 kts 73°
2026-05-05 15:45 49.55085 5.92981 22823 ft 380 kts 72°
2026-05-05 15:45 49.56022 5.96792 22827 ft 380 kts 72°
2026-05-05 15:46 49.56946 6.00540 22833 ft 380 kts 72°
2026-05-05 15:46 49.57887 6.04343 22836 ft 380 kts 72°
2026-05-05 15:46 49.58826 6.08151 22832 ft 380 kts 72°
2026-05-05 15:46 49.59760 6.11950 22834 ft 380 kts 72°
2026-05-05 15:47 49.60694 6.15759 22835 ft 380 kts 72°
2026-05-05 15:47 49.61311 6.18279 22838 ft 380 kts 72°
2026-05-05 15:47 49.62557 6.23373 22840 ft 380 kts 72°
2026-05-05 15:47 49.63499 6.27183 22839 ft 380 kts 69°
2026-05-05 15:48 49.64731 6.30799 22826 ft 382 kts 61°
2026-05-05 15:48 49.66091 6.34313 22836 ft 381 kts 60°
2026-05-05 15:48 49.67448 6.37828 22844 ft 380 kts 60°
2026-05-05 15:48 49.68782 6.41286 22848 ft 380 kts 60°
2026-05-05 15:49 49.70134 6.44803 22849 ft 380 kts 60°
2026-05-05 15:49 49.71480 6.48315 22848 ft 380 kts 60°
2026-05-05 15:49 49.72840 6.51809 22844 ft 380 kts 57°
2026-05-05 15:49 49.74421 6.55093 22842 ft 380 kts 54°
2026-05-05 15:50 49.76030 6.58347 22834 ft 380 kts 54°
2026-05-05 15:50 49.77631 6.61596 22832 ft 380 kts 54°
2026-05-05 15:50 49.79228 6.64844 22812 ft 380 kts 54°
2026-05-05 15:50 49.80825 6.68100 22801 ft 379 kts 54°
2026-05-05 15:51 49.82420 6.71349 22807 ft 379 kts 54°
2026-05-05 15:51 49.84016 6.74600 22810 ft 380 kts 54°
2026-05-05 15:51 49.85597 6.77829 22805 ft 380 kts 54°
2026-05-05 15:51 49.87189 6.81083 22797 ft 379 kts 54°
2026-05-05 15:52 49.88780 6.84340 22783 ft 379 kts 54°
2026-05-05 15:52 49.90369 6.87601 22786 ft 378 kts 54°
2026-05-05 15:52 49.91955 6.90863 22789 ft 378 kts 54°
2026-05-05 15:52 49.93537 6.94120 22810 ft 378 kts 54°
2026-05-05 15:53 49.95122 6.97383 22816 ft 379 kts 54°
2026-05-05 15:53 49.96712 7.00659 22835 ft 380 kts 54°
2026-05-05 15:53 49.98299 7.03931 22829 ft 379 kts 55°
2026-05-05 15:53 50.00069 7.06953 22833 ft 380 kts 40°
2026-05-05 15:54 50.02311 7.09009 22836 ft 382 kts 21°
2026-05-05 15:54 50.04909 7.09874 22834 ft 383 kts
2026-05-05 15:54 50.07543 7.09396 22832 ft 383 kts 343°
2026-05-05 15:54 50.09959 7.07678 22833 ft 383 kts 329°
2026-05-05 15:55 50.12271 7.05601 22827 ft 383 kts 329°
2026-05-05 15:55 50.14574 7.03534 22821 ft 383 kts 332°
2026-05-05 15:55 50.17067 7.02069 22818 ft 383 kts 349°
2026-05-05 15:55 50.19709 7.01556 22818 ft 382 kts 354°
2026-05-05 15:56 50.22325 7.01330 22805 ft 382 kts
2026-05-05 15:56 50.24886 7.02458 22841 ft 390 kts 30°
2026-05-05 15:56 50.26998 7.05028 22613 ft 380 kts 52°
2026-05-05 15:56 50.28271 7.08534 21761 ft 369 kts 76°
2026-05-05 15:57 50.28546 7.12448 20903 ft 360 kts 98°
2026-05-05 15:57 50.27907 7.16196 20191 ft 358 kts 118°
2026-05-05 15:57 50.26479 7.19339 19695 ft 354 kts 138°
2026-05-05 15:57 50.24598 7.21770 19291 ft 352 kts 140°
2026-05-05 15:58 50.22847 7.24480 18959 ft 353 kts 132°
2026-05-05 15:58 50.21378 7.27498 18598 ft 349 kts 123°
2026-05-05 15:58 50.20236 7.30791 18129 ft 350 kts 116°
2026-05-05 15:58 50.19239 7.34242 17506 ft 348 kts 114°
2026-05-05 15:59 50.18353 7.37727 16956 ft 341 kts 112°
2026-05-05 15:59 50.17564 7.41112 16805 ft 324 kts 111°
2026-05-05 15:59 50.16820 7.44398 16824 ft 319 kts 111°
2026-05-05 15:59 50.16078 7.47652 16730 ft 318 kts 111°
2026-05-05 16:00 50.15320 7.50931 15721 ft 326 kts 111°
2026-05-05 16:00 50.14536 7.54270 14842 ft 329 kts 111°
2026-05-05 16:00 50.13744 7.57598 14230 ft 323 kts 112°
2026-05-05 16:00 50.12970 7.60822 13811 ft 313 kts 112°
2026-05-05 16:01 50.12209 7.63957 13379 ft 305 kts 112°
2026-05-05 16:01 50.11462 7.67015 12843 ft 299 kts 112°
2026-05-05 16:01 50.10732 7.69992 12254 ft 296 kts 112°
2026-05-05 16:01 50.10003 7.72973 11611 ft 294 kts 112°
2026-05-05 16:02 50.09277 7.75934 11011 ft 291 kts 112°
2026-05-05 16:02 50.08556 7.78880 10829 ft 291 kts 112°
2026-05-05 16:02 50.07654 7.81675 10820 ft 290 kts 129°
2026-05-05 16:02 50.06280 7.83982 10830 ft 290 kts 136°
2026-05-05 16:03 50.04862 7.86219 10833 ft 290 kts 136°
2026-05-05 16:03 50.03448 7.88445 10835 ft 290 kts 136°
2026-05-05 16:03 50.02035 7.90674 10837 ft 289 kts 135°
2026-05-05 16:03 50.00882 7.93238 10838 ft 292 kts 116°
2026-05-05 16:04 50.00332 7.96233 10822 ft 295 kts 97°
2026-05-05 16:04 50.00460 7.99422 10712 ft 298 kts 77°
2026-05-05 16:04 50.01158 8.02474 10615 ft 300 kts 70°
2026-05-05 16:04 50.01909 8.05495 10509 ft 300 kts 71°
2026-05-05 16:05 50.02652 8.08517 10407 ft 299 kts 71°
2026-05-05 16:05 50.03390 8.11542 10314 ft 299 kts 71°
2026-05-05 16:05 50.04123 8.14559 10217 ft 298 kts 71°
2026-05-05 16:05 50.04855 8.17577 10115 ft 298 kts 71°
2026-05-05 16:06 50.05587 8.20592 10014 ft 298 kts 71°
2026-05-05 16:06 50.06318 8.23601 9916 ft 298 kts 71°
2026-05-05 16:06 50.07047 8.26612 9812 ft 295 kts 71°
2026-05-05 16:06 50.07769 8.29607 9710 ft 295 kts 71°
2026-05-05 16:07 50.08485 8.32587 9607 ft 294 kts 71°
2026-05-05 16:07 50.09192 8.35529 9503 ft 294 kts 71°
2026-05-05 16:07 50.09907 8.38499 9405 ft 293 kts 71°
2026-05-05 16:07 50.10622 8.41469 9311 ft 293 kts 71°
2026-05-05 16:08 50.11335 8.44434 9185 ft 292 kts 71°
2026-05-05 16:08 50.12047 8.47398 9089 ft 292 kts 71°
2026-05-05 16:08 50.12755 8.50355 8991 ft 292 kts 71°
2026-05-05 16:08 50.13463 8.53314 8892 ft 291 kts 71°
2026-05-05 16:09 50.14169 8.56268 8795 ft 291 kts 71°
2026-05-05 16:09 50.14873 8.59226 8698 ft 291 kts 72°
2026-05-05 16:09 50.15574 8.62180 8599 ft 290 kts 71°
2026-05-05 16:09 50.16274 8.65132 8504 ft 290 kts 71°
2026-05-05 16:10 50.16972 8.68078 8406 ft 290 kts 71°
2026-05-05 16:10 50.17670 8.71030 8306 ft 290 kts 71°
2026-05-05 16:10 50.18358 8.73937 8211 ft 289 kts 71°
2026-05-05 16:10 50.19053 8.76874 8118 ft 289 kts 71°
2026-05-05 16:11 50.19750 8.79816 8019 ft 288 kts 71°
2026-05-05 16:11 50.21824 8.88602 7719 ft 287 kts 71°
2026-05-05 16:12 50.22508 8.91530 7626 ft 285 kts 72°
2026-05-05 16:12 50.23876 8.97369 7432 ft 286 kts 71°
2026-05-05 16:13 50.25917 9.06119 7133 ft 286 kts 71°
2026-05-05 16:13 50.26599 9.09040 7034 ft 285 kts 71°
2026-05-05 16:13 50.27270 9.11917 6948 ft 286 kts 71°
2026-05-05 16:14 50.28623 9.17728 6754 ft 284 kts 72°
2026-05-05 16:14 50.29951 9.23495 6565 ft 279 kts 72°
2026-05-05 16:15 50.31265 9.29244 6381 ft 282 kts 72°
2026-05-05 16:15 50.32587 9.34999 6181 ft 280 kts 71°
2026-05-05 16:16 50.33766 9.40787 6034 ft 278 kts 86°
2026-05-05 16:16 50.32760 9.46404 5909 ft 271 kts 130°
2026-05-05 16:17 50.29671 9.49346 5780 ft 265 kts 171°
2026-05-05 16:17 50.27869 9.49360 5693 ft 251 kts 192°
2026-05-05 16:18 50.25082 9.46996 5346 ft 220 kts 227°
2026-05-05 16:18 50.24225 9.45048 5200 ft 218 kts 243°
2026-05-05 16:18 50.23197 9.40559 4943 ft 220 kts 249°
2026-05-05 16:19 50.22680 9.38313 4823 ft 219 kts 249°
2026-05-05 16:19 50.22336 9.36835 4730 ft 217 kts 249°
2026-05-05 16:19 50.21343 9.32544 4482 ft 208 kts 248°
2026-05-05 16:20 50.20202 9.27610 4186 ft 210 kts 249°
2026-05-05 16:20 50.19321 9.23812 4019 ft 225 kts 249°
2026-05-05 16:21 50.18262 9.19245 4019 ft 224 kts 249°
2026-05-05 16:22 50.16664 9.12347 4018 ft 226 kts 248°
2026-05-05 16:22 50.15592 9.07754 4022 ft 226 kts 248°
2026-05-05 16:23 50.14511 9.03142 4024 ft 228 kts 249°
2026-05-05 16:23 50.13969 9.00831 4021 ft 223 kts 248°
2026-05-05 16:23 50.12935 8.96405 4018 ft 216 kts 248°
2026-05-05 16:24 50.12419 8.94204 4023 ft 216 kts 248°
2026-05-05 16:24 50.11904 8.92008 4028 ft 215 kts 248°
2026-05-05 16:24 50.10869 8.87658 4025 ft 218 kts 248°
2026-05-05 16:25 50.10348 8.85458 3914 ft 215 kts 249°
2026-05-05 16:25 50.09320 8.81094 3406 ft 213 kts 249°
2026-05-05 16:25 50.08814 8.78948 3125 ft 208 kts 249°
2026-05-05 16:26 50.07876 8.74974 2600 ft 178 kts 249°
2026-05-05 16:26 50.07118 8.71770 2182 ft 142 kts 250°
2026-05-05 16:27 50.06784 8.70363 1993 ft 136 kts 249°
2026-05-05 16:27 50.06462 8.69003 1810 ft 133 kts 249°
2026-05-05 16:27 50.06142 8.67655 1634 ft 132 kts 251°
2026-05-05 16:27 50.05822 8.66305 1455 ft 133 kts 250°
2026-05-05 16:28 50.05502 8.64958 1276 ft 133 kts 250°
2026-05-05 16:28 50.05186 8.63631 1091 ft 132 kts 250°
2026-05-05 16:28 50.04864 8.62271 902 ft 133 kts 250°
2026-05-05 16:28 50.04545 8.60934 731 ft 134 kts 251°
2026-05-05 16:29 50.04217 8.59573 521 ft 135 kts 250°
2026-05-05 16:29 50.03899 8.58218 386 ft 132 kts 251°
2026-05-05 16:29 50.03624 8.57057 354 ft 79 kts 249°
2026-05-05 16:29 50.03496 8.56519 357 ft 38 kts 250°
2026-05-05 16:30 50.03439 8.56222 351 ft 21 kts 266°
2026-05-05 16:30 50.03442 8.56012 349 ft 12 kts 279°
2026-05-05 16:30 50.03447 8.55969 349 ft 0 kts 280°
2026-05-05 16:30 50.03448 8.55955 353 ft 5 kts 280°
2026-05-05 16:31 50.03457 8.55881 345 ft 9 kts 279°
2026-05-05 16:31 50.03468 8.55779 351 ft 11 kts 280°
2026-05-05 16:31 50.03474 8.55719 345 ft 2 kts 279°
2026-05-05 16:31 50.03476 8.55705 345 ft 1 kts 279°
2026-05-05 16:32 50.03485 8.55619 345 ft 8 kts 279°
2026-05-05 16:32 50.03492 8.55554 355 ft 5 kts 279°
2026-05-05 16:32 50.03500 8.55515 349 ft 2 kts 314°
2026-05-05 16:32 50.03515 8.55509 348 ft 3 kts 350°
2026-05-05 16:33 50.03561 8.55515 348 ft 6 kts
2026-05-05 16:33 50.03586 8.55521 346 ft 2 kts
2026-05-05 16:33 50.03592 8.55522 347 ft 3 kts
2026-05-05 16:33 50.03611 8.55527 347 ft 2 kts
2026-05-05 16:34 50.03621 8.55529 347 ft 1 kts
2026-05-05 16:34 50.03622 8.55529 351 ft 0 kts
2026-05-05 16:34 50.03636 8.55532 349 ft 4 kts
2026-05-05 16:34 50.03636 8.55533 349 ft 0 kts
2026-05-05 16:38 50.03637 8.55533 349 ft 0 kts
2026-05-05 16:38 50.03680 8.55540 348 ft 12 kts
2026-05-05 16:39 50.03745 8.55557 350 ft 9 kts
2026-05-05 16:39 50.03797 8.55542 355 ft 6 kts 340°
2026-05-05 16:39 50.03831 8.55523 353 ft 4 kts 340°
2026-05-05 16:39 50.03853 8.55511 356 ft 2 kts 340°
2026-05-05 16:40 50.03860 8.55507 353 ft 0 kts 340°
2026-05-05 16:40 50.03862 8.55505 353 ft 2 kts 340°
2026-05-05 16:40 50.03871 8.55500 349 ft 0 kts 340°
2026-05-05 16:41 50.03875 8.55498 358 ft 3 kts 339°
2026-05-05 16:42 50.03891 8.55489 356 ft 3 kts 340°
2026-05-05 16:42 50.03945 8.55523 352 ft 11 kts 60°
2026-05-05 16:42 50.03973 8.55635 355 ft 11 kts 69°
2026-05-05 16:42 50.03998 8.55742 357 ft 14 kts 70°
2026-05-05 16:43 50.04047 8.55941 353 ft 20 kts 70°
2026-05-05 16:43 50.04094 8.56142 354 ft 19 kts 70°
2026-05-05 16:43 50.04136 8.56323 354 ft 17 kts 71°
2026-05-05 16:43 50.04175 8.56478 359 ft 14 kts 69°
2026-05-05 16:44 50.04206 8.56607 361 ft 11 kts 69°
2026-05-05 16:44 50.04229 8.56709 361 ft 10 kts 70°
2026-05-05 16:44 50.04277 8.56909 361 ft 25 kts 70°
2026-05-05 16:44 50.04340 8.57170 361 ft 26 kts 70°
2026-05-05 16:45 50.04404 8.57442 363 ft 26 kts 71°
2026-05-05 16:45 50.04466 8.57702 365 ft 23 kts 71°
2026-05-05 16:45 50.04503 8.57853 367 ft 12 kts 69°
2026-05-05 16:45 50.04514 8.57897 368 ft 0 kts 71°
2026-05-05 16:46 50.04517 8.57910 366 ft 7 kts 71°
2026-05-05 16:46 50.04544 8.58031 369 ft 14 kts 70°
2026-05-05 16:46 50.04590 8.58219 367 ft 18 kts 70°
2026-05-05 16:46 50.04627 8.58376 369 ft 14 kts 70°
2026-05-05 16:47 50.04659 8.58509 372 ft 13 kts 69°
2026-05-05 16:47 50.04687 8.58626 372 ft 10 kts 69°
2026-05-05 16:47 50.04707 8.58708 370 ft 7 kts 68°
2026-05-05 16:47 50.04724 8.58770 370 ft 6 kts 64°
2026-05-05 16:48 50.04740 8.58822 370 ft 5 kts 66°
2026-05-05 16:48 50.04751 8.58865 370 ft 4 kts 69°
2026-05-05 16:48 50.04761 8.58908 371 ft 3 kts 70°
2026-05-05 16:48 50.04765 8.58923 369 ft 0 kts 70°
2026-05-05 16:49 50.04765 8.58924 369 ft 0 kts 70°
2026-05-05 16:51 50.04766 8.58929 371 ft 4 kts 70°
2026-05-05 16:51 50.04808 8.59113 371 ft 21 kts 69°
2026-05-05 16:52 50.04852 8.59298 369 ft 16 kts 68°
2026-05-05 16:52 50.04933 8.59334 370 ft 14 kts 339°
2026-05-05 16:52 50.05030 8.59275 362 ft 16 kts 329°
2026-05-05 16:52 50.05037 8.59126 362 ft 11 kts 247°
2026-05-05 16:53 50.05012 8.59020 362 ft 10 kts 250°
2026-05-05 16:53 50.04987 8.58917 364 ft 10 kts 249°
2026-05-05 16:53 50.04970 8.58847 365 ft 3 kts 249°
2026-05-05 16:53 50.04968 8.58837 364 ft 0 kts 249°
2026-05-05 16:54 50.04968 8.58836 364 ft 1 kts 249°
2026-05-05 16:54 50.04963 8.58817 360 ft 2 kts 250°
2026-05-05 16:55 50.04936 8.58778 363 ft 4 kts 182°
2026-05-05 16:55 50.04924 8.58783 361 ft 2 kts 163°
2026-05-05 16:55 50.04909 8.58791 362 ft 0 kts 160°
2026-05-05 16:55 50.04901 8.58795 366 ft 2 kts 160°
2026-05-05 16:56 50.04894 8.58799 364 ft 0 kts 160°